Weather in Sarande

Albania     39°52′33″N   20°00′29″E
temp.,
°C
wind,
m/s
gust,
m/s
humid.,
%
clouds,
%
prec.,
mm/h
press.,
hPa
HPBL,
m
24 january, mon
mon2401:00−2ne33520 0.0 1023126
04:00−2nne44460 0.0 1023221
07:00−3nne34480 0.0 1025221
10:000ne34300 0.0 10251524
13:00+2nne442569 0.0 10252507
16:00+1ene332987 0.0 10251453
19:00−2ne344358 0.0 1028325
22:00−2ne444248 0.0 1029279
25 january, tue
tue2501:00−3ne44420 0.0 1030224
04:00−4ne33410 0.0 1030165
07:00−4ne43400 0.0 1031126
10:000ne23212 0.0 1031476
13:00+3wnw12180 0.0 10281025
16:00+2nnw12310 0.0 1027146
19:00−2ne43417 0.0 102877
22:00−2ne33392 0.0 102879
26 january, wed
wed2601:00−2ne33353 0.0 102764
04:00−1ne32313 0.0 102651
07:00−1ne32301 0.0 102653
10:00+4ne11241 0.0 1026430
13:00+6wsw12330 0.0 1025574
16:00+4nw01490 0.0 102465
19:00+1ne32530 0.0 102646
22:000ne32510 0.0 102642
27 january, thu
thu2701:00+1ne32512 0.0 102635
04:00+1ne22540 0.0 102639
07:00+1ne22580 0.0 102735
10:00+6ese01460 0.0 1027413
13:00+7sw21502 0.0 1026636
16:00+5sw11655 0.0 102657
19:00+3ne226716 0.0 102643
22:00+2ne22655 0.0 102636
28 january, fri
fri2801:00+2ne22609 0.0 102637
04:00+2ne225819 0.0 102639
07:00+2ene225826 0.0 102546
10:00+6se115130 0.0 1025377
13:00+7s2159100 0.0 1024492
16:00+6sse1173100 0.0 102355
19:00+4ne227198 0.0 102342
22:00+4ne226798 0.0 102341